Andover, NJ

10:33 PM EDT on June 24, 2017 (GMT -0400)
Andover

Weather History for K12N - October, 2012

Change the Weather History Date:

Monday, October 8, 2012

  Actual Average (KFWN) Record (KFWN)
Temperature  
Mean Temperature 44 °F -  
Max Temperature 52 °F 65 °F 88 °F (2007)
Min Temperature 37 °F 37 °F 25 °F (1954)
Degree Days  
Heating Degree Days 20    
Moisture  
Dew Point 41 °F    
Average Humidity 83    
Maximum Humidity 97    
Minimum Humidity 59    
Precipitation  
Precipitation 0.00 in - - ()
Sea Level Pressure  
Sea Level Pressure 30.24 in    
Wind  
Wind Speed 0 mph (NE)    
Max Wind Speed 6 mph    
Max Gust Speed -    
Averages and records for this station are not official NWS values.
T = Trace of Precipitation, MM = Missing Value Source: NWS Daily Summary

Daily Weather History Graph

Daily Weather History Graph

Search for Another Location

Airport or City:

Trip Planner

Search our weather history database for the weather conditions in past years. The results will help you decide how hot, cold, wet, or windy it might be!

Date:

Astronomy

Oct. 08, 2012 Rise Set
Actual Time 7:03 AM EDT 6:28 PM EDT
Civil Twilight 6:35 AM EDT 6:56 PM EDT
Nautical Twilight 6:04 AM EDT 7:27 PM EDT
Astronomical Twilight 5:32 AM EDT 7:59 PM EDT
Moon No Moon Rise 2:19 PM EDT (10/8)
Length of Visible Light 12h 20m
Length of Day
11h 25m
Waning Gibbous, 46% of the Moon is Illuminated
Oct 8
Waning Gibbous
Oct 15
New
Oct 21
First Quarter
Oct 29
Full
Nov 6
Last Quarter

Hourly Weather History & Observations

Time (EDT) Temp. Dew Point Humidity Pressure Visibility Wind Dir Wind Speed Gust Speed Precip Events Conditions
12:54 AM 43.0 °F 42.1 °F 97% 30.14 in - Calm Calm - N/A   Unknown
1:54 AM 42.1 °F 41.0 °F 96% 30.15 in - Calm Calm - N/A   Unknown
2:54 AM 43.0 °F 42.1 °F 97% 30.16 in - Calm Calm - N/A   Unknown
3:54 AM 42.1 °F 39.9 °F 92% 30.15 in - Calm Calm - N/A   Unknown
4:54 AM 39.9 °F 37.9 °F 93% 30.17 in - Calm Calm - N/A   Unknown
5:54 AM 37.9 °F 37.0 °F 97% 30.19 in - Calm Calm - N/A   Unknown
6:54 AM 37.9 °F 37.0 °F 97% 30.23 in - Calm Calm - N/A   Unknown
7:54 AM 39.9 °F 37.9 °F 93% 30.27 in - Calm Calm - N/A   Unknown
8:54 AM 46.0 °F 41.0 °F 83% 30.27 in - Calm Calm - N/A   Unknown
9:54 AM 46.9 °F 39.9 °F 77% 30.29 in - Calm Calm - N/A   Unknown
10:54 AM 48.0 °F 39.0 °F 71% 30.28 in - Variable 5.8 mph - N/A   Unknown
11:54 AM 48.9 °F 39.0 °F 69% 30.27 in - NE 5.8 mph - N/A   Unknown
12:54 PM 50.0 °F 39.0 °F 66% 30.28 in - Calm Calm - N/A   Unknown
1:54 PM 52.0 °F 39.0 °F 61% 30.28 in - Calm Calm - N/A   Unknown
2:54 PM 52.0 °F 37.9 °F 59% 30.26 in - Calm Calm - N/A   Unknown
3:54 PM 51.1 °F 39.0 °F 63% 30.28 in - Calm Calm - N/A   Unknown
4:54 PM 51.1 °F 41.0 °F 68% 30.27 in - Calm Calm - N/A   Unknown
5:54 PM 50.0 °F 42.1 °F 74% 30.29 in - Calm Calm - N/A   Unknown
6:54 PM 48.9 °F 44.1 °F 83% 30.29 in - Calm Calm - N/A   Unknown
7:54 PM 48.0 °F 45.0 °F 89% 30.28 in - Calm Calm - N/A   Unknown
8:54 PM 48.0 °F 45.0 °F 89% 30.27 in - Calm Calm - N/A   Unknown
9:54 PM 46.9 °F 45.0 °F 93% 30.28 in - Calm Calm - N/A   Unknown
10:54 PM 46.0 °F 44.1 °F 93% 30.27 in - Calm Calm - N/A   Unknown
11:54 PM 46.9 °F 44.1 °F 90% 30.25 in - Calm Calm - N/A   Unknown